Location: Newark
(39.2833°N, 16.3333°E)
Time: 07:18:59
(UTC+00:00)

Envisat - Visible Passes

Search period start: 21 October 2019 00:00
Search period end: 31 October 2019 00:00
Orbit: 764 x 766 km, 98.1° (Epoch: 21 October)

Date Brightness Start Highest point End Pass type
(mag) Time Alt. Az. Time Alt. Az. Time Alt. Az.
21 Oct 2.9 16:52:25 10° SSE 16:57:28 76° ENE 17:02:34 10° N visible
21 Oct 6.2 18:35:25 10° WSW 18:37:01 11° W 18:38:37 10° WNW visible
22 Oct 5.1 17:55:39 10° SSW 17:59:53 27° W 18:04:10 10° NW visible
23 Oct 6.5 04:28:09 10° ENE 04:30:07 12° E 04:32:04 10° ESE visible
23 Oct 3.6 17:17:57 10° S 17:22:58 61° W 17:28:00 10° NNW visible
24 Oct 3.0 16:41:16 10° SSE 16:46:14 59° ENE 16:51:14 10° N visible
24 Oct 6.0 18:22:47 10° SW 18:25:37 15° W 18:28:29 10° WNW visible
25 Oct 4.7 17:43:59 10° SSW 17:48:33 34° W 17:53:09 10° NNW visible
26 Oct 3.1 17:06:37 10° S 17:11:41 78° WSW 17:16:47 10° NNW visible
27 Oct 3.3 16:30:11 10° SE 16:35:01 46° ENE 16:39:52 10° N visible
27 Oct 5.6 18:10:40 10° SW 18:14:15 19° W 18:17:50 10° NW visible
28 Oct 6.1 04:41:11 10° NE 04:44:30 17° E 04:47:50 10° SE visible
28 Oct 4.2 17:32:26 10° S 17:37:14 43° W 17:42:04 10° NNW visible
29 Oct 2.9 16:55:21 10° SSE 17:00:26 83° ENE 17:05:32 10° N visible
29 Oct 6.3 18:39:36 10° W 18:40:02 10° W 18:40:28 10° W visible
30 Oct 3.5 16:19:12 10° SE 16:23:48 37° ENE 16:28:27 10° N visible
30 Oct 5.3 17:58:48 10° SSW 18:02:53 24° W 18:07:00 10° NW visible
